Location: Harwich
(41.7160°N, 69.9939°W)
Time: 05:16:34
(UTC+01:00)

Transit 4A - Visible Passes

Search period start: 30 January 2023 00:00
Search period end: 09 February 2023 00:00
Orbit: 871 x 973 km, 66.8° (Epoch: 29 January)

Date Brightness Start Highest point End Pass type
(mag) Time Alt. Az. Time Alt. Az. Time Alt. Az.
30 Jan 8.2 00:52:54 10° SW 00:58:39 59° NW 01:02:23 22° NNE visible
30 Jan 10.4 02:43:36 10° WNW 02:45:57 13° NW 02:45:57 13° NW visible
30 Jan 10.0 10:05:57 15° S 10:05:57 15° S 10:06:51 10° S visible
30 Jan 8.5 23:16:40 10° S 23:21:47 33° ESE 23:26:55 10° NE visible
31 Jan 8.9 01:02:31 10° WSW 01:07:59 41° NW 01:12:05 17° N visible
31 Jan 8.1 23:25:15 10° S 23:30:51 50° ESE 23:36:26 10° NE visible
01 Feb 9.4 01:12:24 10° WSW 01:17:24 29° NW 01:21:41 13° N visible
01 Feb 7.8 23:34:10 10° SSW 23:39:58 75° ESE 23:45:47 10° NNE visible
02 Feb 9.9 01:22:32 10° W 01:26:55 21° NW 01:31:12 10° N visible
02 Feb 8.0 23:43:21 10° SW 23:49:10 76° WNW 23:55:01 10° NNE visible
03 Feb 10.2 01:33:02 10° WNW 01:36:31 16° NW 01:40:01 10° N visible
03 Feb 8.6 23:52:47 10° SW 23:58:27 52° NW 00:04:08 10° NNE visible
04 Feb 10.3 01:44:05 10° NW 01:46:13 12° NNW 01:48:22 10° N visible
05 Feb 9.2 00:02:29 10° WSW 00:07:48 36° NW 00:13:10 10° NNE visible
06 Feb 9.6 00:12:27 10° WSW 00:17:15 26° NW 00:22:07 10° N visible
07 Feb 10.0 00:22:42 10° W 00:26:48 19° NW 00:30:56 10° N visible
08 Feb 10.2 00:33:21 10° WNW 00:36:26 14° NW 00:39:34 10° N visible
